Tracking 29892 objects as of 21-Nov-2024
HD Live streaming from Space Station
objects crossing your sky now

FENGYUN 1C DEB

Track FENGYUN 1C DEB now!
10-day predictions


NORAD ID: 31369
Int'l Code: 1999-025BRZ
Perigee: 796.7 km
Apogee: 876.9 km
Inclination: 98.6 °
Period: 101.5 minutes
Semi major axis: 7207 km
RCS: 0.0106 m2 (small)
Launch date: May 10, 1999
Source: People's Republic of China (PRC)
Launch site: Taiyaun Space Center, China (TSC)

Note: This is SATELLITE DEBRIS
Your satellite tracking list
Your tracking list is empty




NASA's NSSDC Master Catalog

Two Line Element Set (TLE):
1 31369U 99025BRZ 24324.23178289  .00000964  00000-0  47762-3 0  9990
2 31369  98.5815 310.9635 0055688 341.2761  29.8391 14.18726420588179
Source of the keplerian elements: AFSPC